Regional Weather Roundup
Issued by NWS Green Bay, WI

Home | Current Version | Previous Version | Text Only | Print | Product List | Glossary On
Versions: 1 2 3 4 5 6 7 8 9 10 11 12 13 14 15 16 17 18 19 20 21 22 23 24 25 26 27 28 29 30 31 32 33 34 35 36 37 38 39 40 41 42 43 44 45 46 47 48 49 50
000
ASUS43 KGRB 191811
RWRGRB

NORTH-CENTRAL AND NORTHEAST WISCONSIN REGIONAL WEATHER ROUNDUP
NATIONAL WEATHER SERVICE GREEN BAY WI
1200 PM CST SUN FEB 19 2017

WIZ005-009-010>012-018-019-191900-
NORTH CENTRAL WISCONSIN

CITY           SKY/WX    TMP DP  RH WIND       PRES   REMARKS
IRONWOOD       MOSUNNY   48  30  49 E5        30.00S
MANITOWISH WTR MOSUNNY   46  29  52 CALM      30.00F
ARBOR VITAE    SUNNY     51  32  47 S3        30.00S
EAGLE RIVER    SUNNY     47  28  45 CALM      30.01S
LAND O LAKES   SUNNY     49  28  44 S3        30.02S
RHINELANDER    SUNNY     50  30  46 CALM      30.01F
PHILLIPS       MOSUNNY   52  31  45 CALM      29.99S
ANTIGO         CLOUDY    47  29  51 CALM      30.02F
TOMAHAWK       SUNNY     53  29  39 CALM      30.01S
MERRILL        NOT AVBL
$$

WIZ013-073-191900-
NORTHEAST WISCONSIN

CITY           SKY/WX    TMP DP  RH WIND       PRES   REMARKS
IRON MOUNTAIN  CLOUDY    44  28  53 CALM      30.02S
MARINETTE      SUNNY     47  31  53 E9        30.05S
OCONTO         SUNNY     51  31  45 SE3       30.04F
$$

WIZ017-030-035>037-045-191900-
CENTRAL WISCONSIN

CITY           SKY/WX    TMP DP  RH WIND       PRES   REMARKS
MEDFORD        MOSUNNY   46  32  59 S6        30.00F
WAUSAU         SUNNY     52  31  44 CALM      30.00S
MOSINEE        MOSUNNY   48  34  57 CALM      30.03S
MARSHFIELD     MOSUNNY   48  33  56 S6        30.01R
WISC RAPIDS    MOSUNNY   57  33  40 VRB3      30.03S
STEVENS POINT  MOSUNNY   50  30  46 S5        30.03S
WAUPACA        SUNNY     56  34  44 CALM      30.03F
SHAWANO        SUNNY     53  32  46 NE3       30.04F
CLINTONVILLE   SUNNY     52  32  46 SW3       30.03F
WAUTOMA        SUNNY     58  34  40 S7        30.04F
$$

WIZ038-039-048-051-191900-
FOX VALLEY

CITY           SKY/WX    TMP DP  RH WIND       PRES   REMARKS
NWS GREEN BAY  SUNNY     54  35  48 SE3       30.04S
APPLETON       MOSUNNY   54  32  43 SE7       30.03S
OSHKOSH        SUNNY     51  35  54 NE5       30.04F
FOND DU LAC    SUNNY     55  36  48 S3        30.04F
$$

WIZ022-050-052-191900-
EAST CENTRAL WISCONSIN

CITY           SKY/WX    TMP DP  RH WIND       PRES   REMARKS
EPHRAIM        FAIR      45  32  60 N5        30.04F
WASHINGTON ISL FAIR      43  31  61 NW5       30.05R
STURGEON BAY   SUNNY     49  31  49 NE3       30.05F
MANITOWOC      SUNNY     52  33  48 MISG      30.06S
SHEBOYGAN      SUNNY     54  32  43 S5        30.05S
$$

LMZ563-521-522-541>543-191900-
LAKESHORE

STATION/POSITION TIME  TEMP    WIND        PRES    VSBY  WAVE
                       AIR SEA DIR/SP/G                  HT/PER
                 (UTC) (F)     (DEG/KT/KT) (MB)    (MI)  (FT/S)
SHEBOYGAN LKSHOR 1800   47      70/  4/  4 1017.7S
KEWAUNEE LKSHORE 1748   46      80/  3/  7 1017.0F
NORTHPORT PIER   1740   42     320/  5/  6 1017.9R
SISTER BAY LKSHO 1705   48        CALM       N/A
CHAMBERS ISLAND  1740   44      50/  6/  7 1017.3S
MENOMINEE LKSHOR 1748   39     130/  6/  6 1016.5F
$$



USA.gov is the U.S. government's official web portal to all federal, state and local government web resources and services.